Tracking 19219 objects as of 19-Jul-2018
HD Live streaming from Space Station
objects crossing your sky now

FENGYUN 1C DEB

Track FENGYUN 1C DEB now!
10-day predictions


NORAD ID: 31522
Int'l Code: 1999-025BXM
Perigee: 863.6 km
Apogee: 936.7 km
Inclination: 99.0 °
Period: 102.8 minutes
Semi major axis: 7271 km
RCS: 0.0063 m2 (small)
Launch date: May 10, 1999
Source: People's Republic of China (PRC)
Launch site: Taiyaun Space Center, China (TSC)

Note: This is SATELLITE DEBRIS
aabbcc
Your satellite tracking list
Your tracking list is empty




NASA's NSSDC Master Catalog

Two Line Element Set (TLE):
1 31522U 99025BXM 18199.13695896 -.00000206  00000-0 -10890-3 0  9994
2 31522  99.0025 262.4377 0050289 157.7881 202.5478 14.00229759572373
Source of the keplerian elements: AFSPC